Weather reports worldwide

Advertisment
Koblenz/Falkensteinkaserne, Germany (10516): temperature & dewpoint: 18.06.2018 16:00:00 - 24.06.2018 16:00:00 (CEST)Koblenz/Falkensteinkaserne, Germany (10516): wind speed & gusts: 18.06.2018 16:00:00 - 24.06.2018 16:00:00 (CEST)Koblenz/Falkensteinkaserne, Germany (10516): wind direction: 18.06.2018 16:00:00 - 24.06.2018 16:00:00 (CEST)Koblenz/Falkensteinkaserne, Germany (10516): reduced air pressure: 18.06.2018 16:00:00 - 24.06.2018 16:00:00 (CEST)Koblenz/Falkensteinkaserne, Germany (10516): visibility: 18.06.2018 16:00:00 - 24.06.2018 16:00:00 (CEST)
Date & Time tt [°C] td [°C] ff [km/h] ff [kn] fx [km/h] fx [kn] dd ppp [hPa] vv [km]
24.06.2018 16:00:00 - - - - - - - - -
24.06.2018 15:00:00 - - - - - - - - -
24.06.2018 14:00:00 - - - - - - - - -
24.06.2018 13:00:00 - - - - - - - - -
24.06.2018 12:00:00 - - - - - - - - -
24.06.2018 11:00:00 - - - - - - - - -
24.06.2018 10:00:00 - - - - - - - - -
24.06.2018 09:00:00 - - - - - - - - -
24.06.2018 08:00:00 - - - - - - - - -
24.06.2018 07:00:00 - - - - - - - - -
24.06.2018 06:00:00 - - - - - - - - -
24.06.2018 05:00:00 - - - - - - - - -
24.06.2018 04:00:00 - - - - - - - - -
24.06.2018 03:00:00 - - - - - - - - -
24.06.2018 02:00:00 - - - - - - - - -
24.06.2018 01:00:00 - - - - - - - - -
24.06.2018 00:00:00 - - - - - - - - -
23.06.2018 23:00:00 - - - - - - - - -
23.06.2018 22:00:00 - - - - - - - - -
23.06.2018 21:00:00 - - - - - - - - -
23.06.2018 20:00:00 - - - - - - - - -
23.06.2018 19:00:00 - - - - - - - - -
23.06.2018 18:00:00 - - - - - - - - -
23.06.2018 17:00:00 - - - - - - - - -
23.06.2018 16:00:00 - - - - - - - - -
23.06.2018 15:00:00 - - - - - - - - -
23.06.2018 14:00:00 - - - - - - - - -
23.06.2018 13:00:00 - - - - - - - - -
23.06.2018 12:00:00 - - - - - - - - -
23.06.2018 11:00:00 - - - - - - - - -
23.06.2018 10:00:00 - - - - - - - - -
23.06.2018 09:00:00 - - - - - - - - -
23.06.2018 08:00:00 - - - - - - - - -
23.06.2018 07:00:00 - - - - - - - - -
23.06.2018 06:00:00 - - - - - - - - -
23.06.2018 05:00:00 - - - - - - - - -
23.06.2018 04:00:00 - - - - - - - - -
23.06.2018 03:00:00 - - - - - - - - -
23.06.2018 02:00:00 - - - - - - - - -
23.06.2018 01:00:00 - - - - - - - - -
23.06.2018 00:00:00 - - - - - - - - -
22.06.2018 23:00:00 - - - - - - - - -
22.06.2018 22:00:00 - - - - - - - - -
22.06.2018 21:00:00 15,4 6,3 14 8 - - WNW 1026,1 30
22.06.2018 20:00:00 15,9 5,9 14 8 - - NW 1026,0 30
22.06.2018 19:00:00 16,2 5,9 18 10 - - WNW 1025,9 25
22.06.2018 18:00:00 16,6 5,6 14 8 - - NW 1025,8 25
22.06.2018 17:00:00 16,2 5,3 14 8 - - NNW 1025,9 25
22.06.2018 16:00:00 15,4 5,3 18 10 - - NW 1025,9 25
22.06.2018 15:00:00 15,0 5,1 14 8 - - NW 1025,8 25
22.06.2018 14:00:00 14,5 5,5 11 6 - - NNW 1026,1 25
22.06.2018 13:00:00 13,8 4,9 22 12 - - NW 1025,9 25
22.06.2018 12:00:00 13,9 5,4 18 10 - - NW 1025,5 25
22.06.2018 11:00:00 13,2 5,1 14 8 - - NW 1025,4 25
22.06.2018 10:00:00 12,9 5,0 18 10 - - NW 1025,2 25
22.06.2018 09:00:00 12,6 5,1 18 10 - - WNW 1025,0 20
22.06.2018 08:00:00 12,5 5,0 14 8 - - NW 1024,6 20
22.06.2018 07:00:00 11,8 4,8 11 6 - - WNW 1024,5 20
22.06.2018 06:00:00 - - - - - - - - -
22.06.2018 05:00:00 - - - - - - - - -
22.06.2018 04:00:00 - - - - - - - - -
22.06.2018 03:00:00 - - - - - - - - -
22.06.2018 02:00:00 - - - - - - - - -
22.06.2018 01:00:00 - - - - - - - - -
22.06.2018 00:00:00 - - - - - - - - -
21.06.2018 23:00:00 - - - - - - - - -
21.06.2018 22:00:00 - - - - - - - - -
21.06.2018 21:00:00 - - - - - - - - -
21.06.2018 20:00:00 - - - - - - - - -
21.06.2018 19:00:00 - - - - - - - - -
21.06.2018 18:00:00 19,3 2,3 22 12 - - NW 1020,8 25
21.06.2018 17:00:00 18,9 1,6 22 12 - - NNW 1020,4 40
21.06.2018 16:00:00 20,4 3,1 22 12 - - NNW 1019,7 30
21.06.2018 15:00:00 20,4 3,3 25 14 - - NW 1018,8 30
21.06.2018 14:00:00 21,0 8,2 22 12 - - NW 1018,3 25
21.06.2018 13:00:00 19,9 9,6 25 14 47 25 NW 1018,0 20
21.06.2018 12:00:00 18,7 13,2 14 8 - - WNW 1017,6 20
21.06.2018 11:00:00 17,9 13,0 18 10 - - NW 1017,3 18
21.06.2018 10:00:00 21,9 13,9 11 6 - - NW 1015,3 20
21.06.2018 09:00:00 20,8 14,5 7 4 - - SW 1015,4 30
21.06.2018 08:00:00 19,1 13,6 7 4 - - SSW 1015,8 30
21.06.2018 07:00:00 17,4 13,6 4 2 - - WNW 1016,0 25
21.06.2018 06:00:00 - - - - - - - - -
21.06.2018 05:00:00 - - - - - - - - -
21.06.2018 04:00:00 - - - - - - - - -
21.06.2018 03:00:00 - - - - - - - - -
21.06.2018 02:00:00 - - - - - - - - -
21.06.2018 01:00:00 - - - - - - - - -
21.06.2018 00:00:00 - - - - - - - - -
20.06.2018 23:00:00 - - - - - - - - -
20.06.2018 22:00:00 - - - - - - - - -
20.06.2018 21:00:00 - - - - - - - - -
20.06.2018 20:00:00 - - - - - - - - -
20.06.2018 19:00:00 - - - - - - - - -
20.06.2018 18:00:00 29,0 12,3 7 4 - - S 1018,0 40
20.06.2018 17:00:00 29,1 11,8 7 4 - - SW 1018,7 40
20.06.2018 16:00:00 28,7 10,7 7 4 - - SSW 1019,2 30
20.06.2018 15:00:00 28,2 13,1 7 4 - - SSW 1019,7 30
20.06.2018 14:00:00 27,3 13,7 7 4 - - E 1020,4 30
20.06.2018 13:00:00 26,5 13,9 7 4 - - W 1021,2 30
20.06.2018 12:00:00 25,2 13,7 7 4 - - NW 1021,8 30
20.06.2018 11:00:00 23,0 14,4 7 4 - - N 1022,3 30
20.06.2018 10:00:00 23,2 13,5 7 4 - - S 1022,4 30
20.06.2018 09:00:00 21,8 15,6 4 2 - - N 1022,7 25
20.06.2018 08:00:00 19,3 15,5 4 2 - - N 1023,0 20
20.06.2018 07:00:00 18,3 15,9 7 4 - - N 1023,1 20
20.06.2018 06:00:00 - - - - - - - - -
20.06.2018 05:00:00 - - - - - - - - -
20.06.2018 04:00:00 - - - - - - - - -
20.06.2018 03:00:00 - - - - - - - - -
20.06.2018 02:00:00 - - - - - - - - -
20.06.2018 01:00:00 - - - - - - - - -
20.06.2018 00:00:00 - - - - - - - - -
19.06.2018 23:00:00 - - - - - - - - -
19.06.2018 22:00:00 - - - - - - - - -
19.06.2018 21:00:00 - - - - - - - - -
19.06.2018 20:00:00 - - - - - - - - -
19.06.2018 19:00:00 - - - - - - - - -
19.06.2018 18:00:00 22,5 15,2 11 6 - - NNW 1024,2 30
19.06.2018 17:00:00 22,3 14,6 7 4 - - NNW 1024,2 30
19.06.2018 16:00:00 22,2 14,2 4 2 - - NW 1024,4 30
19.06.2018 15:00:00 21,6 14,0 7 4 - - NW 1024,5 30
19.06.2018 14:00:00 20,4 14,6 7 4 - - N 1024,7 30
19.06.2018 13:00:00 20,6 14,3 4 2 - - N 1024,6 25
19.06.2018 12:00:00 21,0 14,2 4 2 - - SW 1024,3 25
19.06.2018 11:00:00 20,0 14,0 7 4 - - SSW 1024,3 25
19.06.2018 10:00:00 18,5 13,4 7 4 - - SW 1024,6 25
19.06.2018 09:00:00 17,7 13,2 4 2 - - N 1024,4 25
19.06.2018 08:00:00 17,2 12,8 7 4 - - WSW 1024,2 30
19.06.2018 07:00:00 16,2 13,2 4 2 - - SSW 1023,9 30
19.06.2018 06:00:00 - - - - - - - - -
19.06.2018 05:00:00 - - - - - - - - -
19.06.2018 04:00:00 - - - - - - - - -
19.06.2018 03:00:00 - - - - - - - - -
19.06.2018 02:00:00 - - - - - - - - -
19.06.2018 01:00:00 - - - - - - - - -
19.06.2018 00:00:00 - - - - - - - - -
18.06.2018 23:00:00 - - - - - - - - -
18.06.2018 22:00:00 - - - - - - - - -
18.06.2018 21:00:00 - - - - - - - - -
18.06.2018 20:00:00 - - - - - - - - -
18.06.2018 19:00:00 - - - - - - - - -
18.06.2018 18:00:00 21,1 12,7 11 6 - - WSW 1021,5 30
18.06.2018 17:00:00 21,4 12,2 11 6 - - SW 1021,8 30
18.06.2018 16:00:00 22,7 11,9 11 6 - - SW 1021,6 30

tt = temperature
td = dewpoint
ff = wind speed
fx = gusts
dd = wind direction
ppp = reduced air pressure
vv = visibility

Next stations